Flag for Colombia Weather past 2 weeks in Cartagena, Colombia

Now
82 °F

Passing clouds.


Feels Like: 89 °F
Forecast: 80 / 89 °F
Wind: 5 mph from Northeast

Location: Cartagena / Rafael Nunez

Current Time: Aug 21, 2014 at 12:06:48 AM

Latest Report: Aug 20, 2014 at 11:00 PM


Visibility: N/A

Pressure: 29.88 "Hg

Humidity: 79%

Dew point: 75 °F

Location of CartagenaLocation

Historic Weather in Cartagena — Graph

°F

Cartagena temperature yesterday

Maximum temperature yesterday: 90 °F (at 11:00 AM)
Minimum temperature yesterday: 81 °F (at 12:00 AM)
Average temperature yesterday: 84 °F

Past Weeks' High & Low Weather Summary

 TemperatureHumidityPressure
High93 °F (Aug 15, 2:00 PM)100% (Aug 8, 6:00 AM)29.96 "Hg (Aug 8, 6:00 AM)
Low77 °F (Aug 8, 5:00 AM)55% (Aug 14, 11:00 AM)29.06 "Hg (Aug 6, 7:00 AM)
Average84 °F79%29.84 "Hg
* Reported Aug 5 11:00 PM — Aug 20 11:00 PM, Cartagena, Weather by CustomWeather, © 2014

Note: Actual official high and low records may vary slightly from our data, if they occured in-between our weather recording intervals... More about our weather records

Advertising

Cartagena weather history for previous 24 hours

 ConditionsComfort  
Time TempWeatherWind HumidityBarometerVisibility
11:00 PM
Aug 20
82 °FPassing clouds.5 mph79%29.88 "HgN/A
10:00 PM82 °FPassing clouds.5 mph84%29.89 "HgN/A
9:00 PM82 °FPassing clouds.5 mph84%29.87 "HgN/A
8:00 PM82 °FPassing clouds.5 mph84%29.88 "HgN/A
7:00 PM82 °FPassing clouds.5 mph84%29.85 "HgN/A
6:00 PM84 °FPartly sunny.6 mph79%29.82 "HgN/A
5:00 PM86 °FPartly sunny.8 mph70%29.82 "HgN/A
4:00 PM86 °FPartly sunny.13 mph75%29.81 "HgN/A
3:00 PM88 °FPartly sunny.15 mph66%29.81 "HgN/A
2:00 PM86 °FPartly sunny.21 mph75%29.84 "HgN/A
1:00 PM88 °FPartly sunny.12 mph70%29.86 "HgN/A
12:00 PM90 °FScattered clouds.9 mph67%29.87 "HgN/A
11:00 AM90 °FScattered clouds.14 mph67%29.89 "HgN/A
10:00 AM86 °FScattered clouds.3 mph75%29.90 "HgN/A
9:00 AM84 °FScattered clouds.2 mph79%29.89 "HgN/A
8:00 AM82 °FPartly sunny.6 mph84%29.86 "HgN/A
7:00 AM81 °FScattered clouds.6 mph89%29.86 "HgN/A
6:00 AM81 °FScattered clouds.6 mph89%29.86 "HgN/A
5:00 AM81 °FPassing clouds.3 mph84%29.84 "HgN/A
4:00 AM81 °FPassing clouds.2 mph84%29.83 "HgN/A
3:00 AM81 °FPassing clouds.3 mph89%29.84 "HgN/A
2:00 AM81 °FFog.N/A89%29.86 "HgN/A
1:00 AM81 °FPartly cloudy.No wind89%29.86 "HgN/A
12:00 AM81 °FPassing clouds.2 mph89%29.86 "HgN/A
Weather by CustomWeather, © 2014

See weather overviewHow to use our weather pages